SCP
-0 -0 -0 -0 -0 -0 -0 -0 -0 -0 -0 -0 -0 -0 -0 -0 -0 -0 -0 -0 -0 -0 -0 -0 -0 0 0 0 0 0 -0 0 0 0 0 0 0 0 0 0 -0 -0 0 0 0 0 0
-0 -0 -0 -0 -0 -0 -0 -0 -0 -0 -0 -0 -0 -0 -0 -0 -0 -0 -0 -0 -0 -0 -0 -0 0 0 0 0 0 0 0 0 0 0 0 0 0 0 0 0 0 0 0 0 0 -0 -0
-0 -0 -0 -0 -0 -0 -0 -0 -0 0 0 0 0 0 0 -0 -0 -0 -0 -0 -0 -0 -0 -0 0 0 0 -0 0 0 0 0 0 0 0 0 0 0 0 0 0 0 0 0 0 0 0
0 0 0 0 0 -0 -0 -0 -0 -0 -0 0 0 0 -0 -0 -0 -0 -0 -0 -0 -0 -0 0 0 0 -0 -0 0 0 0 0 0 0 0 0 0 0 0 0 0 0 0 0 0 0 0
0 0 0 0 0 0 0 0 -0 -0 -0 -0 0 0 -0 -0 -0 -0 -0 -0 -0 0 0 0 0 0 -0 0 0 0 0 0 0 0 0 0 0 0 0 0 0 0 0 0 0 0 0
-0 0 0 0 0 0 0 0 0 0 0 0 -0 -0 -0 0 0 0 -0 -0 -0 0 0 0 0 0 0 0 0 0 0 0 0 0 0 0 0 0 0 0 0 0 0 0 0 0 0
-0 -0 -0 0 0 0 0 0 0 0 0 0 0 0 -0 -0 -0 0 0 0 0 0 0 0 0 0 0 0 0 0 0 0 0 0 0 0 0 -0 -0 0 0 0 0 0 0 0 0
-0 -0 -0 0 0 0 0 0 0 0 0 0 0 0 0 -0 -0 0 0 0 0 0 0 0 -0 -0 -0 -0 0 0 0 0 0 0 0 0 0 0 0 0 0 0 0 0 0 0 -0
0 0 0 0 0 0 0 0 0 0 0 0 0 0 0 0 0 0 0 0 0 0 -0 0 0 0 -0 0 0 0 0 0 0 0 0 0 0 0 0 0 0 0 0 0 0 0 0
0 0 0 0 0 0 0 0 0 0 0 0 0 0 0 0 0 0 0 0 0 0 0 0 0 0 0 0 0 0 0 0 0 0 0 0 0 0 0 0 0 0 0 0 0 0 0
0 0 0 0 0 0 0 0 0 0 0 0 0 0 0 0 0 0 0 0 0 0 0 0 0 0 0 0 0 0 0 0 0 0 0 0 0 0 0 0 0 0 0 0 0 0 0
0 0 0 0 -0 0 0 0 0 -0 0 0 0 0 0 0 0 0 0 0 0 0 0 0 0 0 0 0 0 0 0 0 0 0 0 0 0 0 0 0 0 0 0 0 0 0 0
0 0 0 0 0 0 0 0 0 -0 -0 -0 0 0 0 0 0 0 0 0 0 0 0 0 0 0 0 0 0 0 0 0 0 0 0 0 0 0 0 0 0 0 0 0 0 0 0
0 0 0 0 0 0 0 0 0 0 -0 0 -0 -0 0 0 0 0 0 0 0 0 0 0 0 0 0 0 0 0 0 0 0 0 0 0 0 0 0 0 0 0 0 0 0 0 0
0 0 0 0 0 0 0 0 0 -0 -0 0 0 0 0 0 0 0 0 0 0 0 0 0 0 0 0 0 0 0 0 0 0 0 0 0 0 0 0 0 0 0 0 0 0 0 0
0 0 0 0 0 0 0 0 0 -0 -0 -0 0 0 0 0 0 0 0 0 0 0 0 0 0 0 0 0 0 0 0 0 0 0 0 0 0 0 0 0 0 0 0 0 0 0 0
0 0 0 0 0 0 0 -0 -0 -0 -0 0 0 0 0 0 0 0 0 0 0 0 0 0 0 0 0 0 0 0 0 0 0 0 0 0 0 0 0 0 0 0 0 0 0 0 0
0 0 0 0 0 0 0 0 -0 -0 -0 0 0 0 0 0 0 0 0 0 0 0 0 -0 -0 0 0 0 0 0 0 0 0 0 0 0 0 0 0 0 0 0 0 0 0 0 0
0 0 0 0 0 0 0 0 -0 -0 -0 0 0 0 -0 0 0 0 0 0 0 0 0 -0 -0 -0 -0 0 0 0 0 0 0 0 0 0 0 0 0 0 0 0 0 0 0 0 0
0 0 0 0 0 0 0 0 -0 -0 -0 0 0 0 0 0 0 0 0 0 0 0 0 0 0 0 -0 0 0 0 0 0 0 0 0 0 0 0 0 0 0 0 0 0 0 0 0
0 0 0 0 0 0 0 0 0 -0 -0 -0 0 0 0 0 0 0 0 0 0 0 0 0 0 0 0 0 0 0 0 0 0 0 0 0 0 0 0 0 0 0 0 0 0 0 0
0 0 0 0 0 0 0 0 -0 -0 -0 0 0 0 0 0 0 0 0 0 0 0 0 0 0 0 0 0 0 0 0 0 0 0 0 0 0 0 0 0 0 0 0 0 0 0 0
0 0 0 0 0 0 0 -0 0 0 -0 0 0 -0 0 0 0 0 0 0 0 0 0 0 0 0 0 0 0 0 0 0 0 0 0 0 0 0 0 0 0 0 0 0 0 0 0
0 0 0 0 0 0 0 -0 -0 0 -0 -0 -0 -0 0 0 0 0 0 0 0 0 0 0 0 0 0 0 0 0 0 0 0 0 0 0 0 0 0 0 0 0 0 0 0 0 0
0 0 0 0 0 0 0 0 -0 0 0 0 0 0 0 0 0 0 0 0 0 0 0 0 0 0 0 0 0 0 0 0 0 0 0 0 0 0 0 0 0 0 0 0 0 0 0
0 0 0 0 0 0 0 0 0 0 0 0 0 0 0 0 0 0 0 0 0 0 0 0 0 0 0 0 0 0 0 0 0 0 0 0 0 0 0 0 0 0 0 0 0 0 -0
0 0 0 0 0 0 0 0 0 0 0 0 0 0 0 0 0 0 0 0 0 0 0 0 0 0 0 0 0 0 0 0 0 0 0 0 0 0 0 0 0 0 0 0 0 0 0
0 0 0 0 0 0 0 0 0 0 0 0 0 0 0 0 0 0 0 0 0 0 0 0 0 0 0 0 0 0 0 0 0 0 0 0 0 0 0 0 0 0 0 0 0 0 1
0 0 0 0 0 0 0 0 0 0 0 0 0 0 0 0 0 0 0 0 0 0 0 0 0 0 0 0 0 0 0 0 0 0 0 0 0 0 0 0 0 0 0 0 0 0 0
Wind_Speed_500mb
29 30 31 32 33 33 34 35 36 37 37 37 37 36 35 35 36 37 36 36 35 35 34 32 30 30 29 15 31 23 23 5 30 34 25 26 13 11 8 6 10 4 4 11 17 26 24
30 32 33 34 35 36 36 37 38 38 39 39 39 40 39 38 38 38 38 38 36 37 35 32 29 28 24 11 13 12 7 14 14 28 24 21 9 11 11 2 1 5 16 24 12 12 11
34 35 36 37 38 38 39 39 39 39 40 40 40 40 41 41 42 42 40 39 38 38 36 33 29 27 31 48 10 11 16 8 6 14 23 19 17 6 5 5 4 4 9 13 4 6 2
33 34 36 37 38 39 39 39 40 41 41 41 41 41 41 41 43 44 42 39 41 40 35 33 28 25 26 33 28 41 38 28 13 12 18 21 11 6 6 4 4 7 9 8 7 13 7
36 36 36 38 38 39 40 42 42 41 41 43 42 43 42 42 43 45 43 40 42 38 33 26 22 17 24 22 33 36 41 32 27 26 18 13 11 2 2 2 11 10 3 6 15 6 4
38 39 40 41 40 41 41 41 42 42 43 42 43 44 43 43 43 45 39 39 33 26 16 14 18 7 32 12 14 12 32 39 23 32 19 15 6 3 5 7 10 6 4 6 10 8 10
42 43 43 43 43 44 44 44 43 43 43 42 42 42 43 41 44 43 37 25 11 7 13 22 11 17 8 2 9 10 11 38 27 28 11 11 6 15 24 17 10 8 2 9 8 7 3
42 43 43 43 45 47 47 47 47 46 45 44 44 45 42 38 42 39 31 7 3 8 20 33 54 63 58 40 16 12 18 21 17 10 13 7 17 12 9 9 13 4 13 15 14 14 5
43 44 45 45 44 45 45 47 48 49 49 48 47 46 44 37 38 33 16 7 13 20 8 25 45 57 67 37 30 48 20 22 14 13 13 14 7 23 17 10 18 9 9 10 11 6 3
44 45 46 47 49 51 50 50 50 50 50 49 49 47 47 36 25 8 8 21 10 26 6 14 10 16 37 34 16 53 36 27 5 20 20 12 12 22 13 18 5 5 12 14 6 6 7
41 43 45 47 49 51 52 54 55 55 54 51 50 49 46 37 28 23 6 18 19 10 6 5 8 3 21 38 22 25 40 26 20 14 14 15 16 23 24 17 25 16 9 12 5 3 3
41 45 47 49 52 54 56 57 58 59 58 55 52 50 49 35 32 14 15 9 18 10 13 10 9 8 9 10 8 17 23 25 20 13 4 13 3 14 14 18 32 7 8 11 4 3 3
41 44 48 51 53 55 58 60 63 64 63 60 54 49 43 37 20 7 9 3 7 7 10 8 2 6 6 12 7 11 16 14 14 12 8 2 5 2 10 12 5 6 12 2 2 0 9
41 44 48 51 54 57 59 62 66 69 68 67 60 43 33 32 24 23 13 6 7 8 11 9 7 3 12 12 11 7 15 15 5 13 9 14 8 13 10 13 14 12 15 11 12 10 7
43 47 51 53 55 57 61 65 69 75 74 73 57 37 17 14 24 23 13 5 16 13 7 12 10 12 11 3 11 8 12 18 17 14 15 11 12 3 5 6 5 11 7 8 13 5 4
44 47 51 55 58 61 63 67 72 80 79 70 56 20 11 3 24 36 8 11 8 7 8 7 7 4 10 13 5 13 14 11 13 16 11 16 6 8 9 11 3 9 13 8 4 9 7
43 47 51 56 59 63 68 72 75 82 82 68 24 5 24 16 42 15 8 14 10 14 10 6 2 8 4 6 2 4 12 9 15 17 13 12 9 3 12 13 19 6 4 9 10 9 9
43 47 52 55 59 65 69 71 75 80 83 69 17 7 21 12 8 3 5 8 4 5 2 5 2 12 12 6 7 5 14 17 32 20 21 19 12 10 12 3 2 3 12 14 10 5 1
44 48 50 54 59 65 71 71 72 74 77 67 20 7 18 28 6 5 10 7 8 8 11 6 6 12 8 2 8 8 8 7 12 16 21 16 3 7 7 9 5 4 7 8 10 8 13
42 45 47 50 56 62 67 72 68 68 65 51 16 6 5 2 2 0 7 6 7 11 8 7 9 3 2 5 12 10 5 7 7 12 15 25 10 21 23 14 12 9 10 10 12 8 9
41 42 45 51 57 61 65 70 69 62 55 37 23 6 8 7 6 7 4 4 6 9 8 9 4 11 10 8 5 12 12 10 8 6 6 13 18 15 15 20 17 17 21 29 23 31 21
41 43 46 52 61 65 63 65 66 63 53 23 14 13 20 13 16 10 1 3 1 10 5 10 5 14 12 14 19 9 5 5 11 4 5 3 6 11 30 18 24 15 31 33 40 30 18
41 43 46 51 56 60 64 64 63 62 53 20 21 10 8 13 8 6 3 5 7 17 17 26 12 13 14 17 18 50 47 33 16 10 7 8 7 3 15 12 14 10 16 22 16 19 24
42 44 47 52 55 57 59 60 56 52 48 38 30 16 7 8 4 6 9 19 24 14 12 22 36 9 9 57 44 14 15 24 10 9 2 10 10 3 3 8 8 16 17 25 25 14 27
46 47 47 48 52 56 56 55 55 48 41 33 27 9 3 8 10 27 10 5 22 32 13 17 33 30 45 29 3 6 8 3 9 5 7 3 10 7 8 5 10 5 12 17 17 19 19
47 48 49 48 49 52 52 51 52 47 41 34 18 10 4 11 10 12 9 14 6 7 11 14 29 30 13 1 3 10 11 13 9 6 7 11 10 8 8 8 16 16 8 24 12 14 16
44 46 47 46 47 51 50 47 48 47 39 34 18 8 17 13 32 14 9 6 7 6 7 16 21 16 14 2 4 7 8 7 12 17 10 6 7 9 4 5 13 15 8 17 15 19 20
44 45 46 45 47 47 47 46 46 43 34 35 33 18 14 16 50 69 53 41 24 17 6 14 20 4 7 4 5 6 6 9 4 8 12 11 11 7 5 6 10 13 10 16 13 12 26
47 45 45 45 46 48 48 48 46 41 34 29 36 25 23 37 52 73 90 92 79 67 34 19 8 3 11 1 2 1 3 1 5 5 7 1 12 9 17 13 9 13 10 18 25 38 38
Wind_Direction_500mb
341 337 332 329 326 324 322 321 319 319 318 317 314 310 307 307 305 303 302 300 301 300 298 301 302 305 311 291 263 286 292 257 189 188 200 188 185 141 206 173 187 127 226 248 268 271 263
338 335 332 330 327 326 324 322 320 318 316 314 312 311 309 306 302 300 300 300 300 296 294 295 296 297 296 269 276 272 241 169 191 200 203 195 216 186 123 182 192 294 284 278 290 288 230
342 338 335 332 329 326 324 323 321 318 316 314 312 310 310 307 304 301 298 299 298 292 289 288 286 284 272 254 264 150 133 127 173 225 204 191 158 175 168 158 284 209 0 333 201 346 202
348 343 338 334 331 329 327 321 319 318 316 314 313 309 308 306 304 302 300 302 297 291 287 281 274 271 258 271 252 241 250 264 198 180 214 214 186 161 144 238 193 48 56 6 301 3 348
352 348 344 338 335 332 329 328 323 320 317 315 313 311 306 306 305 302 304 307 300 295 285 270 255 238 263 255 242 234 238 239 216 197 203 172 173 17 15 131 27 28 313 334 335 349 275
351 349 347 346 344 339 335 331 327 324 320 317 313 310 307 305 305 304 310 314 307 294 273 235 226 251 251 240 230 222 218 218 176 182 143 176 132 45 64 52 197 222 20 309 307 309 28
349 346 345 345 345 343 341 338 334 330 326 319 313 308 305 307 306 307 315 332 302 283 219 211 218 223 225 266 245 215 150 184 162 152 150 186 138 215 203 182 158 148 213 264 289 277 352
352 353 352 350 348 346 344 342 340 336 331 325 318 313 306 307 304 307 313 322 105 350 301 256 247 253 250 256 297 236 216 154 150 161 113 76 228 217 226 241 223 341 316 285 267 271 117
0 357 355 353 350 348 345 343 341 339 335 330 325 318 310 308 305 305 303 187 206 326 262 278 241 239 240 237 229 252 197 178 139 145 174 158 228 156 177 239 257 257 220 278 244 328 358
360 358 357 355 352 350 347 344 342 340 336 332 327 321 316 312 307 317 308 148 273 308 19 271 240 248 212 202 236 240 228 179 139 174 155 207 183 157 200 209 156 307 220 222 251 141 202
358 358 356 356 355 352 349 345 342 341 337 333 328 322 316 310 290 293 223 298 305 139 328 228 207 182 184 174 151 210 200 196 154 149 121 230 165 167 167 207 166 221 160 168 221 162 37
355 356 355 354 353 351 349 347 344 341 338 334 327 321 309 299 286 283 249 296 148 49 253 320 150 163 133 235 234 134 162 186 172 121 61 185 147 169 188 168 181 133 92 47 61 131 191
353 352 353 352 349 348 348 347 345 342 338 335 326 317 297 287 267 186 188 151 58 162 331 307 25 170 187 171 249 163 155 160 153 116 143 55 215 190 141 111 212 116 96 314 263 236 213
353 353 352 351 351 350 349 349 347 344 340 335 327 315 292 272 252 230 211 74 165 236 249 300 329 272 179 161 241 167 130 168 197 123 134 156 259 172 182 190 173 175 157 171 199 185 210
356 356 357 357 355 354 352 351 349 346 343 337 332 325 297 261 214 191 174 125 201 208 282 327 319 57 350 323 176 149 184 181 176 163 160 137 237 66 109 61 108 180 172 161 100 343 61
4 5 5 4 2 360 358 355 352 348 346 342 335 344 37 289 184 167 96 227 230 221 324 18 55 29 19 326 14 155 185 192 184 173 157 203 189 194 157 112 189 182 160 72 355 172 213
5 4 2 0 360 359 360 360 356 352 350 349 351 43 5 138 151 170 166 226 262 255 241 349 349 341 341 289 299 260 215 238 191 188 142 135 121 224 120 190 179 148 167 60 130 143 158
360 358 358 358 358 358 359 1 359 355 353 358 5 47 108 39 78 21 164 210 251 289 64 330 250 226 220 303 292 274 215 219 198 154 156 197 155 166 204 269 224 159 168 155 133 249 174
352 353 354 356 356 356 355 358 0 359 357 356 356 25 182 12 83 349 303 286 241 233 260 225 262 199 215 226 331 240 259 241 201 153 172 172 173 103 14 354 15 208 210 141 92 122 190
345 347 350 353 354 354 353 352 359 1 0 359 359 12 38 246 35 261 6 305 306 324 260 217 254 233 351 265 221 272 282 300 277 179 218 156 153 184 214 202 153 195 199 199 137 131 233
341 344 348 350 352 354 353 353 353 3 4 12 11 28 13 322 353 343 270 289 325 335 325 316 261 224 190 246 280 221 232 274 277 235 106 147 188 172 193 182 170 183 191 188 198 207 198
341 344 346 348 349 350 353 353 352 358 9 28 31 6 339 296 311 310 270 112 297 333 268 292 211 335 294 228 209 270 286 204 234 253 97 70 276 163 198 179 177 198 210 195 206 218 242
340 341 343 344 346 348 350 354 355 356 4 30 15 353 323 300 335 331 271 38 348 333 256 249 331 338 283 240 288 272 256 260 249 189 207 119 111 95 217 173 128 254 196 185 200 207 207
336 336 337 340 343 345 348 351 356 357 1 2 1 1 359 287 315 269 322 321 297 281 278 279 296 205 262 315 309 271 215 230 228 275 84 117 111 73 126 93 172 236 186 178 194 215 213
330 330 332 334 339 343 345 346 349 351 349 356 347 2 333 287 276 294 282 245 307 292 262 250 263 269 301 310 359 42 346 98 213 84 215 134 130 92 138 231 273 229 198 153 169 244 197
325 326 329 332 334 338 342 343 348 347 342 343 347 317 327 306 247 256 328 274 274 302 310 273 297 308 309 233 111 162 186 194 210 145 128 95 69 121 140 175 210 231 234 140 106 266 178
324 325 326 328 332 335 338 338 341 343 340 335 338 265 301 261 279 270 212 262 314 276 264 292 325 322 359 24 147 165 224 207 167 161 168 85 55 148 142 194 284 247 252 135 159 256 169
321 324 325 326 329 332 334 334 333 337 333 330 323 321 257 257 277 271 263 258 253 221 210 310 328 283 320 31 167 214 168 223 128 178 166 149 141 190 98 130 256 178 76 161 227 136 162
319 322 323 322 325 329 330 330 328 326 325 315 313 310 289 281 265 280 281 274 254 251 249 243 257 330 262 348 248 285 268 357 153 205 11 259 178 190 179 211 240 227 227 243 199 164 172
Wind_Speed_850mb
29 30 31 32 33 33 34 35 36 37 37 37 37 36 35 35 36 37 36 36 35 35 34 32 30 30 29 15 31 23 23 5 30 34 25 26 13 11 8 6 10 4 4 11 17 26 24
30 32 33 34 35 36 36 37 38 38 39 39 39 40 39 38 38 38 38 38 36 37 35 32 29 28 24 11 13 12 7 14 14 28 24 21 9 11 11 2 1 5 16 24 12 12 11
34 35 36 37 38 38 39 39 39 39 40 40 40 40 41 41 42 42 40 39 38 38 36 33 29 27 31 48 10 11 16 8 6 14 23 19 17 6 5 5 4 4 9 13 4 6 2
33 34 36 37 38 39 39 39 40 41 41 41 41 41 41 41 43 44 42 39 41 40 35 33 28 25 26 33 28 41 38 28 13 12 18 21 11 6 6 4 4 7 9 8 7 13 7
36 36 36 38 38 39 40 42 42 41 41 43 42 43 42 42 43 45 43 40 42 38 33 26 22 17 24 22 33 36 41 32 27 26 18 13 11 2 2 2 11 10 3 6 15 6 4
38 39 40 41 40 41 41 41 42 42 43 42 43 44 43 43 43 45 39 39 33 26 16 14 18 7 32 12 14 12 32 39 23 32 19 15 6 3 5 7 10 6 4 6 10 8 10
42 43 43 43 43 44 44 44 43 43 43 42 42 42 43 41 44 43 37 25 11 7 13 22 11 17 8 2 9 10 11 38 27 28 11 11 6 15 24 17 10 8 2 9 8 7 3
42 43 43 43 45 47 47 47 47 46 45 44 44 45 42 38 42 39 31 7 3 8 20 33 54 63 58 40 16 12 18 21 17 10 13 7 17 12 9 9 13 4 13 15 14 14 5
43 44 45 45 44 45 45 47 48 49 49 48 47 46 44 37 38 33 16 7 13 20 8 25 45 57 67 37 30 48 20 22 14 13 13 14 7 23 17 10 18 9 9 10 11 6 3
44 45 46 47 49 51 50 50 50 50 50 49 49 47 47 36 25 8 8 21 10 26 6 14 10 16 37 34 16 53 36 27 5 20 20 12 12 22 13 18 5 5 12 14 6 6 7
41 43 45 47 49 51 52 54 55 55 54 51 50 49 46 37 28 23 6 18 19 10 6 5 8 3 21 38 22 25 40 26 20 14 14 15 16 23 24 17 25 16 9 12 5 3 3
41 45 47 49 52 54 56 57 58 59 58 55 52 50 49 35 32 14 15 9 18 10 13 10 9 8 9 10 8 17 23 25 20 13 4 13 3 14 14 18 32 7 8 11 4 3 3
41 44 48 51 53 55 58 60 63 64 63 60 54 49 43 37 20 7 9 3 7 7 10 8 2 6 6 12 7 11 16 14 14 12 8 2 5 2 10 12 5 6 12 2 2 0 9
41 44 48 51 54 57 59 62 66 69 68 67 60 43 33 32 24 23 13 6 7 8 11 9 7 3 12 12 11 7 15 15 5 13 9 14 8 13 10 13 14 12 15 11 12 10 7
43 47 51 53 55 57 61 65 69 75 74 73 57 37 17 14 24 23 13 5 16 13 7 12 10 12 11 3 11 8 12 18 17 14 15 11 12 3 5 6 5 11 7 8 13 5 4
44 47 51 55 58 61 63 67 72 80 79 70 56 20 11 3 24 36 8 11 8 7 8 7 7 4 10 13 5 13 14 11 13 16 11 16 6 8 9 11 3 9 13 8 4 9 7
43 47 51 56 59 63 68 72 75 82 82 68 24 5 24 16 42 15 8 14 10 14 10 6 2 8 4 6 2 4 12 9 15 17 13 12 9 3 12 13 19 6 4 9 10 9 9
43 47 52 55 59 65 69 71 75 80 83 69 17 7 21 12 8 3 5 8 4 5 2 5 2 12 12 6 7 5 14 17 32 20 21 19 12 10 12 3 2 3 12 14 10 5 1
44 48 50 54 59 65 71 71 72 74 77 67 20 7 18 28 6 5 10 7 8 8 11 6 6 12 8 2 8 8 8 7 12 16 21 16 3 7 7 9 5 4 7 8 10 8 13
42 45 47 50 56 62 67 72 68 68 65 51 16 6 5 2 2 0 7 6 7 11 8 7 9 3 2 5 12 10 5 7 7 12 15 25 10 21 23 14 12 9 10 10 12 8 9
41 42 45 51 57 61 65 70 69 62 55 37 23 6 8 7 6 7 4 4 6 9 8 9 4 11 10 8 5 12 12 10 8 6 6 13 18 15 15 20 17 17 21 29 23 31 21
41 43 46 52 61 65 63 65 66 63 53 23 14 13 20 13 16 10 1 3 1 10 5 10 5 14 12 14 19 9 5 5 11 4 5 3 6 11 30 18 24 15 31 33 40 30 18
41 43 46 51 56 60 64 64 63 62 53 20 21 10 8 13 8 6 3 5 7 17 17 26 12 13 14 17 18 50 47 33 16 10 7 8 7 3 15 12 14 10 16 22 16 19 24
42 44 47 52 55 57 59 60 56 52 48 38 30 16 7 8 4 6 9 19 24 14 12 22 36 9 9 57 44 14 15 24 10 9 2 10 10 3 3 8 8 16 17 25 25 14 27
46 47 47 48 52 56 56 55 55 48 41 33 27 9 3 8 10 27 10 5 22 32 13 17 33 30 45 29 3 6 8 3 9 5 7 3 10 7 8 5 10 5 12 17 17 19 19
47 48 49 48 49 52 52 51 52 47 41 34 18 10 4 11 10 12 9 14 6 7 11 14 29 30 13 1 3 10 11 13 9 6 7 11 10 8 8 8 16 16 8 24 12 14 16
44 46 47 46 47 51 50 47 48 47 39 34 18 8 17 13 32 14 9 6 7 6 7 16 21 16 14 2 4 7 8 7 12 17 10 6 7 9 4 5 13 15 8 17 15 19 20
44 45 46 45 47 47 47 46 46 43 34 35 33 18 14 16 50 69 53 41 24 17 6 14 20 4 7 4 5 6 6 9 4 8 12 11 11 7 5 6 10 13 10 16 13 12 26
47 45 45 45 46 48 48 48 46 41 34 29 36 25 23 37 52 73 90 92 79 67 34 19 8 3 11 1 2 1 3 1 5 5 7 1 12 9 17 13 9 13 10 18 25 38 38
Wind_Direction_850mb
341 337 332 329 326 324 322 321 319 319 318 317 314 310 307 307 305 303 302 300 301 300 298 301 302 305 311 291 263 286 292 257 189 188 200 188 185 141 206 173 187 127 226 248 268 271 263
338 335 332 330 327 326 324 322 320 318 316 314 312 311 309 306 302 300 300 300 300 296 294 295 296 297 296 269 276 272 241 169 191 200 203 195 216 186 123 182 192 294 284 278 290 288 230
342 338 335 332 329 326 324 323 321 318 316 314 312 310 310 307 304 301 298 299 298 292 289 288 286 284 272 254 264 150 133 127 173 225 204 191 158 175 168 158 284 209 0 333 201 346 202
348 343 338 334 331 329 327 321 319 318 316 314 313 309 308 306 304 302 300 302 297 291 287 281 274 271 258 271 252 241 250 264 198 180 214 214 186 161 144 238 193 48 56 6 301 3 348
352 348 344 338 335 332 329 328 323 320 317 315 313 311 306 306 305 302 304 307 300 295 285 270 255 238 263 255 242 234 238 239 216 197 203 172 173 17 15 131 27 28 313 334 335 349 275
351 349 347 346 344 339 335 331 327 324 320 317 313 310 307 305 305 304 310 314 307 294 273 235 226 251 251 240 230 222 218 218 176 182 143 176 132 45 64 52 197 222 20 309 307 309 28
349 346 345 345 345 343 341 338 334 330 326 319 313 308 305 307 306 307 315 332 302 283 219 211 218 223 225 266 245 215 150 184 162 152 150 186 138 215 203 182 158 148 213 264 289 277 352
352 353 352 350 348 346 344 342 340 336 331 325 318 313 306 307 304 307 313 322 105 350 301 256 247 253 250 256 297 236 216 154 150 161 113 76 228 217 226 241 223 341 316 285 267 271 117
0 357 355 353 350 348 345 343 341 339 335 330 325 318 310 308 305 305 303 187 206 326 262 278 241 239 240 237 229 252 197 178 139 145 174 158 228 156 177 239 257 257 220 278 244 328 358
360 358 357 355 352 350 347 344 342 340 336 332 327 321 316 312 307 317 308 148 273 308 19 271 240 248 212 202 236 240 228 179 139 174 155 207 183 157 200 209 156 307 220 222 251 141 202
358 358 356 356 355 352 349 345 342 341 337 333 328 322 316 310 290 293 223 298 305 139 328 228 207 182 184 174 151 210 200 196 154 149 121 230 165 167 167 207 166 221 160 168 221 162 37
355 356 355 354 353 351 349 347 344 341 338 334 327 321 309 299 286 283 249 296 148 49 253 320 150 163 133 235 234 134 162 186 172 121 61 185 147 169 188 168 181 133 92 47 61 131 191
353 352 353 352 349 348 348 347 345 342 338 335 326 317 297 287 267 186 188 151 58 162 331 307 25 170 187 171 249 163 155 160 153 116 143 55 215 190 141 111 212 116 96 314 263 236 213
353 353 352 351 351 350 349 349 347 344 340 335 327 315 292 272 252 230 211 74 165 236 249 300 329 272 179 161 241 167 130 168 197 123 134 156 259 172 182 190 173 175 157 171 199 185 210
356 356 357 357 355 354 352 351 349 346 343 337 332 325 297 261 214 191 174 125 201 208 282 327 319 57 350 323 176 149 184 181 176 163 160 137 237 66 109 61 108 180 172 161 100 343 61
4 5 5 4 2 360 358 355 352 348 346 342 335 344 37 289 184 167 96 227 230 221 324 18 55 29 19 326 14 155 185 192 184 173 157 203 189 194 157 112 189 182 160 72 355 172 213
5 4 2 0 360 359 360 360 356 352 350 349 351 43 5 138 151 170 166 226 262 255 241 349 349 341 341 289 299 260 215 238 191 188 142 135 121 224 120 190 179 148 167 60 130 143 158
360 358 358 358 358 358 359 1 359 355 353 358 5 47 108 39 78 21 164 210 251 289 64 330 250 226 220 303 292 274 215 219 198 154 156 197 155 166 204 269 224 159 168 155 133 249 174
352 353 354 356 356 356 355 358 0 359 357 356 356 25 182 12 83 349 303 286 241 233 260 225 262 199 215 226 331 240 259 241 201 153 172 172 173 103 14 354 15 208 210 141 92 122 190
345 347 350 353 354 354 353 352 359 1 0 359 359 12 38 246 35 261 6 305 306 324 260 217 254 233 351 265 221 272 282 300 277 179 218 156 153 184 214 202 153 195 199 199 137 131 233
341 344 348 350 352 354 353 353 353 3 4 12 11 28 13 322 353 343 270 289 325 335 325 316 261 224 190 246 280 221 232 274 277 235 106 147 188 172 193 182 170 183 191 188 198 207 198
341 344 346 348 349 350 353 353 352 358 9 28 31 6 339 296 311 310 270 112 297 333 268 292 211 335 294 228 209 270 286 204 234 253 97 70 276 163 198 179 177 198 210 195 206 218 242
340 341 343 344 346 348 350 354 355 356 4 30 15 353 323 300 335 331 271 38 348 333 256 249 331 338 283 240 288 272 256 260 249 189 207 119 111 95 217 173 128 254 196 185 200 207 207
336 336 337 340 343 345 348 351 356 357 1 2 1 1 359 287 315 269 322 321 297 281 278 279 296 205 262 315 309 271 215 230 228 275 84 117 111 73 126 93 172 236 186 178 194 215 213
330 330 332 334 339 343 345 346 349 351 349 356 347 2 333 287 276 294 282 245 307 292 262 250 263 269 301 310 359 42 346 98 213 84 215 134 130 92 138 231 273 229 198 153 169 244 197
325 326 329 332 334 338 342 343 348 347 342 343 347 317 327 306 247 256 328 274 274 302 310 273 297 308 309 233 111 162 186 194 210 145 128 95 69 121 140 175 210 231 234 140 106 266 178
324 325 326 328 332 335 338 338 341 343 340 335 338 265 301 261 279 270 212 262 314 276 264 292 325 322 359 24 147 165 224 207 167 161 168 85 55 148 142 194 284 247 252 135 159 256 169
321 324 325 326 329 332 334 334 333 337 333 330 323 321 257 257 277 271 263 258 253 221 210 310 328 283 320 31 167 214 168 223 128 178 166 149 141 190 98 130 256 178 76 161 227 136 162
319 322 323 322 325 329 330 330 328 326 325 315 313 310 289 281 265 280 281 274 254 251 249 243 257 330 262 348 248 285 268 357 153 205 11 259 178 190 179 211 240 227 227 243 199 164 172